User: anonymous   Login
Location: Follega
(52.8850°N, 5.7362°E)
Time: 16:56:18
(UTC+00:00)
Language:

EXPRESS MD2 - Orbit

View from above orbital plane
View from above orbital plane
View from above satellite
View from above satellite

Ground track
Ground track

The orbit data is extracted from the following two-line orbital elements,

1 38745U 12044B   21213.14466509  .00003686  25848-5  10855-3 0  9999
2 38745  49.8798 131.8614 2171149 225.1783 115.0974 11.11440845352760
Epoch (UTC): 01 August 2021 03:28:19
Eccentricity: 0.2171149
inclination: 49.8798°
perigee height: 262 km
apogee height: 3945 km
right ascension of ascending node: 131.8614°
argument of perigee: 225.1783°
revolutions per day: 11.11440845
mean anomaly at epoch: 115.0974°
orbit number at epoch: 35276

The dashed part of the orbit path shows where the satellite is in the earth's shadow,  

DLR